Theta_e
309 312 313 311 310 310 311 311 311 312 312 312 313 312 312 312 312 312 312 312 312 312 312 311 311 311 311 312 313 314 325 329 325 325 327 335 335 337 337 331 326 330 332 333
310 310 311 310 309 309 311 311 311 311 312 312 312 312 313 313 313 312 312 312 312 311 311 310 310 310 311 311 312 313 313 315 323 325 318 323 326 331 336 339 337 331 332 334
310 310 309 309 310 311 312 312 311 311 312 311 312 312 312 313 312 312 312 312 311 311 310 310 311 312 312 312 312 312 312 313 313 313 315 317 323 325 333 338 340 337 334 334
310 309 309 309 310 311 311 311 311 311 311 311 311 311 311 312 313 312 312 312 311 309 310 311 312 313 313 313 313 313 312 312 313 313 314 315 318 324 325 329 338 340 337 334
310 310 310 310 310 311 311 311 312 311 311 312 311 312 311 312 312 312 313 312 311 311 313 314 313 312 312 312 312 312 313 313 312 313 313 314 315 319 324 325 326 335 340 334
310 308 309 310 310 312 311 311 311 310 310 311 310 311 311 311 313 312 312 311 312 314 315 314 312 312 312 312 312 312 312 312 313 312 313 314 315 316 321 324 325 327 333 340
310 310 309 311 312 309 310 311 311 311 310 310 311 310 311 312 312 312 311 311 313 315 314 313 313 313 313 312 312 312 312 312 312 313 312 313 314 316 318 323 325 325 329 337
312 312 310 311 311 311 311 312 312 312 310 310 310 310 310 311 310 310 310 313 315 314 313 313 313 313 314 315 315 314 313 313 312 313 313 313 314 315 316 322 324 326 328 333
314 312 311 310 311 311 310 311 309 311 311 311 310 310 310 310 311 312 313 314 313 313 313 313 314 314 314 318 317 317 317 315 314 313 314 314 314 314 316 320 323 326 328 331
312 312 311 311 310 310 311 310 312 313 312 311 309 310 310 310 311 312 312 312 312 312 313 314 314 314 315 316 316 316 316 318 318 317 317 315 314 314 315 318 323 325 328 330
311 312 311 311 311 310 310 311 312 312 311 311 311 311 311 311 311 312 312 313 311 312 314 314 314 314 314 313 313 315 314 316 318 320 320 318 316 315 315 317 321 323 325 327
312 313 313 312 310 310 310 311 311 312 311 312 312 314 311 311 311 313 312 311 311 314 314 313 314 314 313 313 313 315 313 314 319 322 325 325 318 317 316 315 320 323 324 326
312 313 312 310 310 310 311 311 311 311 312 313 314 313 311 312 312 311 311 311 313 313 313 313 315 314 313 312 312 312 313 314 317 323 327 329 324 320 317 315 320 323 326 332
310 312 312 312 310 311 311 311 311 312 314 313 313 313 313 313 313 312 312 312 314 313 313 312 313 311 310 311 311 312 312 313 319 325 328 332 328 322 316 315 321 326 332 336
310 312 312 311 311 311 311 310 310 312 313 314 313 313 313 314 314 313 312 313 313 313 312 312 312 312 310 310 312 313 312 313 316 325 330 333 333 327 318 318 324 332 336 333
310 311 311 311 311 312 312 312 312 312 312 312 313 314 314 313 312 312 313 313 313 313 312 312 312 312 311 310 311 312 311 313 317 325 330 331 332 329 320 322 330 335 333 329
310 311 311 310 309 310 311 311 311 311 312 313 314 313 313 313 313 313 313 313 313 312 312 311 312 311 310 309 310 309 311 313 321 323 334 331 331 332 324 327 333 332 329 328
308 309 310 310 310 312 310 311 312 313 312 312 313 313 313 312 312 313 313 312 313 312 312 312 312 311 310 309 309 309 311 313 322 325 332 332 332 335 328 331 331 329 328 332
307 309 311 312 313 311 311 311 314 313 314 312 313 312 312 311 312 312 312 312 313 312 312 312 312 311 310 309 309 309 310 319 323 333 335 335 337 336 330 331 330 330 333 335
307 307 311 314 315 316 313 312 312 312 314 313 311 311 312 312 314 313 312 312 312 313 312 312 311 310 309 309 308 309 312 321 330 337 341 339 338 333 331 332 331 334 336 339
312 310 311 311 311 312 312 311 312 315 313 311 310 310 311 314 313 312 313 313 312 312 311 311 311 309 309 309 308 311 321 325 328 335 341 341 338 335 334 337 337 341 341 343
309 312 313 313 314 313 312 312 313 312 310 309 310 310 312 311 311 312 312 311 311 310 310 310 309 309 308 309 309 313 322 325 326 331 338 338 341 341 339 339 342 340 343 342
311 311 311 312 312 311 309 309 308 308 309 309 310 310 310 310 310 311 310 310 309 309 309 309 309 308 309 309 309 313 324 326 326 329 334 335 337 340 342 341 340 341 340 333
308 308 309 308 309 309 308 308 308 309 309 310 310 309 309 309 310 309 309 308 307 307 307 308 308 309 309 309 309 313 322 326 327 328 333 334 335 338 339 337 338 338 333 332
307 307 308 309 309 308 308 308 309 309 309 310 309 307 306 306 306 307 306 305 305 305 305 306 307 309 309 309 310 315 322 326 325 327 332 334 334 335 335 335 336 334 333 331
306 306 307 308 306 306 307 308 310 309 308 307 305 305 305 304 305 304 303 303 303 303 304 305 309 309 308 308 312 317 322 325 325 327 330 331 331 334 333 332 332 331 330 330
Wind_Speed
2 5 5 4 4 3 3 4 6 5 7 7 12 18 18 22 21 21 20 20 21 12 7 4 8 10 11 13 11 7 31 24 24 24 22 24 24 30 39 42 41 34 35 34
3 8 6 5 3 4 4 5 7 7 6 11 14 20 18 17 17 22 22 20 17 12 10 10 7 9 11 14 16 16 11 10 25 33 24 23 21 22 26 35 39 41 36 34
4 1 5 4 3 5 5 7 6 9 8 12 12 12 5 8 13 12 15 12 8 13 16 9 10 13 13 16 18 20 20 18 16 17 17 23 22 23 25 26 38 41 34 28
5 0 5 5 4 6 8 5 6 8 8 8 6 8 10 14 6 5 5 10 13 8 8 14 14 15 14 15 16 19 22 25 23 20 20 19 23 26 27 26 27 35 37 39
4 3 6 8 10 9 6 1 6 8 12 11 13 7 4 3 6 1 6 9 12 9 10 12 14 18 21 24 22 22 22 25 28 27 24 22 23 27 28 29 30 30 43 41
13 2 5 7 2 8 3 4 8 4 4 6 5 7 4 4 8 5 10 12 8 9 8 11 16 22 25 27 27 27 27 26 26 31 30 28 27 27 31 31 34 32 34 39
5 6 2 4 6 3 3 3 6 3 4 4 4 9 11 10 11 15 16 16 13 7 10 14 19 23 27 33 34 33 37 32 28 31 34 33 31 29 32 33 35 39 35 36
7 9 6 5 5 3 4 4 5 5 4 7 10 9 3 6 12 17 17 11 13 14 17 23 18 18 26 31 32 37 35 35 32 32 34 35 35 32 33 36 39 41 39 36
5 6 2 6 1 3 4 7 2 7 9 8 7 12 13 15 8 5 6 3 11 15 24 20 22 22 24 25 29 32 32 32 31 33 35 38 39 36 34 36 40 41 39 33
1 6 5 4 1 6 9 8 4 2 4 6 6 17 12 15 11 5 8 14 17 27 25 19 16 23 29 25 26 32 29 28 28 33 37 38 41 40 37 34 40 43 39 34
4 5 3 3 7 7 5 7 4 3 4 4 8 6 3 9 13 11 13 12 27 27 24 22 20 24 24 29 36 33 33 31 29 29 35 37 38 41 41 38 40 45 40 35
5 3 9 14 11 7 8 11 10 6 6 7 11 18 13 16 12 8 16 27 26 21 20 20 23 27 32 30 32 30 35 33 29 29 30 36 37 38 43 43 39 41 39 34
6 4 6 7 4 4 6 10 10 9 4 15 11 12 3 8 19 28 27 22 21 20 23 21 20 25 31 34 30 32 35 32 33 31 27 32 36 37 43 44 39 38 32 35
4 6 12 14 10 1 5 9 12 13 9 16 18 30 27 26 22 21 24 24 18 22 19 19 22 27 32 32 35 31 33 33 33 31 28 34 39 39 43 44 37 35 34 35
4 13 15 19 22 21 24 26 24 22 23 18 23 23 28 23 23 21 23 17 17 22 18 20 24 30 34 36 28 31 34 33 33 31 29 33 42 41 43 42 36 32 35 34
6 10 12 15 13 15 19 25 25 26 26 25 27 27 25 26 20 17 15 14 18 23 24 23 25 30 35 34 31 37 42 37 34 31 31 27 34 37 43 37 34 36 37 37
5 5 3 12 9 11 13 25 23 22 19 17 17 18 15 16 15 16 18 17 22 28 28 24 29 32 41 42 35 46 43 43 33 32 31 28 34 35 36 36 39 39 39 38
17 13 7 10 11 10 8 3 5 7 11 14 16 18 14 14 20 15 19 22 24 26 26 29 31 31 36 40 39 45 47 42 34 33 29 33 36 34 38 41 41 40 39 35
19 15 6 4 9 13 14 8 2 5 12 7 12 9 17 25 24 21 19 25 30 27 30 32 29 31 37 36 31 40 43 32 42 24 31 36 34 38 43 42 40 37 35 33
9 10 4 4 5 4 2 2 3 2 12 6 10 16 20 25 16 16 24 29 29 26 29 30 30 30 36 37 37 33 35 34 32 19 25 30 33 37 38 40 38 34 31 30
3 4 10 9 6 7 5 3 4 4 6 15 25 26 27 18 21 37 33 34 30 26 28 29 29 33 34 38 35 36 31 27 24 17 16 23 27 32 34 34 32 34 31 33
2 3 2 4 5 6 3 2 5 15 28 24 34 31 26 33 38 34 34 35 33 32 29 27 29 32 38 31 28 30 25 20 17 10 11 16 22 25 27 32 35 32 34 39
3 3 4 4 5 16 27 22 22 25 28 33 28 28 31 34 38 36 35 35 34 31 31 28 27 32 31 26 22 25 15 12 10 6 11 15 17 21 29 34 33 34 42 40
3 3 4 8 2 14 30 32 31 29 29 28 31 30 34 37 42 43 40 39 36 33 34 35 33 28 27 24 23 18 13 1 3 3 12 16 20 27 33 34 36 42 40 38
7 9 6 12 16 19 20 23 33 36 32 31 30 36 40 44 45 40 40 41 36 33 34 30 29 24 26 26 19 15 7 2 7 3 12 21 29 35 33 36 38 36 34 33
2 3 3 6 26 25 27 36 37 36 31 33 41 41 37 35 33 33 38 38 36 33 26 28 23 23 25 20 16 14 8 5 11 7 17 28 32 30 33 34 33 30 27 24
Wind_Direction
42 214 214 195 214 258 231 237 267 277 292 306 293 292 296 286 272 265 264 269 279 278 259 247 287 289 284 278 266 236 227 260 280 278 283 263 255 255 246 243 244 241 232 248
238 243 224 209 251 218 214 257 281 284 272 299 293 291 283 276 267 260 254 243 245 256 257 292 294 292 303 297 285 277 271 224 238 253 266 270 270 263 259 250 244 236 238 247
234 136 156 229 241 221 242 256 285 292 313 287 298 284 239 231 281 253 243 233 262 287 298 303 318 317 313 305 296 280 268 262 254 259 260 264 262 261 261 252 239 238 239 228
253 199 204 211 244 220 276 217 259 276 298 306 336 287 275 280 297 223 303 311 306 288 296 312 316 320 330 320 309 299 284 269 264 267 270 269 266 258 261 262 253 240 230 243
222 219 245 255 268 191 260 215 267 272 277 293 260 257 271 209 254 342 296 284 292 289 307 320 326 318 315 316 313 305 299 280 267 266 269 271 267 260 255 259 259 247 239 239
256 239 246 251 217 195 140 259 271 228 248 247 239 241 198 221 203 242 309 298 305 302 319 322 322 322 319 319 318 310 299 293 274 261 260 261 260 262 257 250 258 258 252 245
225 226 215 208 208 155 166 284 299 255 208 268 165 284 255 217 233 280 295 294 309 309 316 322 321 321 324 322 316 312 309 289 281 267 254 258 257 255 256 245 248 255 255 249
254 250 204 177 239 250 218 245 256 278 266 290 287 255 238 212 271 286 284 277 298 315 327 324 318 320 326 325 321 313 301 292 285 269 259 252 254 252 255 241 241 248 248 248
202 243 252 220 208 216 158 218 330 262 263 273 246 262 270 268 287 306 304 288 306 320 319 314 315 319 326 324 320 315 305 293 284 271 266 256 250 248 250 245 238 243 249 247
232 275 235 268 276 209 234 147 201 195 258 265 259 277 266 288 298 324 318 325 334 326 319 305 301 315 322 321 312 315 308 295 285 272 264 258 250 244 245 247 239 244 242 244
176 235 231 245 214 234 195 211 196 243 232 270 296 266 233 278 292 303 314 320 323 319 314 301 295 310 313 314 314 299 310 297 288 278 266 260 253 245 241 242 241 239 244 245
198 227 263 274 269 260 247 244 221 231 203 234 275 276 272 274 293 305 306 315 316 314 313 301 297 306 312 310 311 296 311 301 291 287 272 260 251 250 242 240 243 235 237 241
179 212 282 281 169 148 209 201 208 230 252 245 262 268 137 240 294 294 302 303 306 308 308 306 303 309 310 309 309 308 308 297 291 286 275 262 253 249 242 238 242 234 228 222
150 242 244 257 279 271 251 220 221 249 259 265 251 278 287 288 293 296 300 304 299 304 301 310 311 313 313 307 305 308 306 295 293 283 276 261 249 243 236 235 238 224 216 204
250 255 253 259 265 265 266 267 266 256 253 255 270 274 280 294 302 299 294 285 299 307 295 300 309 316 320 309 299 303 308 300 296 282 277 260 241 235 231 231 224 210 198 199
200 260 254 260 263 258 261 262 259 256 258 260 263 266 273 285 301 293 279 274 299 308 297 289 305 308 314 315 305 306 311 305 296 278 266 265 237 224 220 220 205 192 196 203
212 222 236 263 278 281 268 255 256 256 248 245 252 271 305 305 309 301 289 279 301 310 303 289 302 304 316 319 309 310 311 302 297 286 242 246 218 205 205 200 192 191 198 199
241 244 242 270 280 249 253 305 255 256 260 241 262 276 301 317 311 288 278 289 305 306 301 296 301 304 311 318 321 313 301 303 295 272 254 210 197 190 188 189 188 193 195 190
224 227 235 235 221 283 295 285 245 210 277 276 279 314 322 318 308 283 285 298 302 298 301 300 300 305 308 310 309 308 306 313 292 248 189 183 178 179 184 184 186 185 183 187
197 216 205 216 253 263 282 103 145 187 278 114 340 318 318 316 301 296 305 302 303 298 301 300 304 306 308 314 319 307 309 325 4 125 146 159 168 176 174 174 175 179 184 175
172 171 218 243 261 271 281 252 197 245 339 324 325 314 304 297 292 297 297 300 300 298 300 301 307 309 313 319 327 332 352 357 350 63 125 139 147 160 168 173 174 168 169 173
261 290 198 229 245 264 54 321 292 315 305 309 307 303 293 298 296 296 295 297 303 303 302 301 307 310 313 321 328 330 349 360 330 22 119 143 155 163 171 166 160 165 167 165
298 312 297 242 269 310 307 309 309 306 296 293 294 294 297 290 291 291 292 294 297 299 298 295 298 304 301 312 321 319 345 349 318 2 172 165 162 167 167 165 164 167 161 160
280 294 261 310 283 298 302 301 299 297 294 296 300 298 298 293 290 290 292 292 295 295 294 294 296 296 292 299 300 301 329 256 221 123 167 167 164 167 165 169 169 160 163 163
282 307 282 274 285 300 277 291 295 298 297 298 300 299 295 292 286 283 289 291 292 290 288 287 285 279 286 296 283 301 311 284 179 138 165 172 161 158 156 154 154 161 166 169
279 312 287 287 298 289 288 299 304 307 305 303 303 295 294 295 289 289 287 287 284 282 281 275 268 277 287 281 275 291 274 230 216 250 159 156 135 144 154 153 154 161 161 165